Regional Weather Roundup
Issued by NWS Goodland, KS

Home | Current Version | Previous Version | Text Only | Print | Product List | Glossary Off
Versions: 1 2 3 4 5 6 7 8 9 10 11 12 13 14 15 16 17 18 19 20 21 22 23 24 25 26 27 28 29 30 31 32 33 34 35 36 37 38 39 40 41 42 43 44 45 46 47 48 49 50

000
ASUS43 KGLD 300408
RWRGLD

GOODLAND FORECAST AREA HOURLY WEATHER ROUNDUP
NATIONAL WEATHER SERVICE GOODLAND KS
1000 PM MDT FRI AUG 29 2014

...OFFICIAL OBSERVATIONS...

CITY           SKY/WX    TMP DP  RH WIND       PRES   REMARKS
GOODLAND KS    PTCLDY    63  56  78 W3        30.05R
HILL CITY KS   CLEAR     67  62  84 N3        29.96R
IMPERIAL NEB   PTCLDY    66  55  67 NE7       30.05R
MCCOOK NEB     PTCLDY    68  59  73 N8        30.00R
AKRON CO       CLOUDY    62  49  62 NW6       30.11R
BURLINGTON CO  MOCLDY    70  51  51 W9        30.10R
LIMON CO       MOCLDY    61  50  67 SW8       30.17S
$$

...UNOFFICIAL OBSERVATIONS...

CITY           SKY/WX    TMP DP  RH WIND       PRES   REMARKS
COLBY KS       CLEAR     64  61  88 CALM      30.02R
GOVE KS          N/A     63  32  31 CALM        N/A
NORTON KS      PTCLDY    64  55  72 CALM      29.96R
SHARON SPRINGS   N/A     68  51  53 CALM        N/A
WAKEENEY KS      N/A     71  49  44 MISG        N/A
KIT CARSON CO    N/A     68  52  55 CALM        N/A
YUMA CO          N/A     66  52  60 CALM        N/A
$$



USA.gov is the U.S. government's official web portal to all federal, state and local government web resources and services.